Retour au catalogue

STARLINK-32542

ActifCommunicationsVLEO
NORAD 62177·PAYLOAD·🇺🇸 United States

Lancé Nov 30, 2024 depuis Vandenberg Space Force Base

Loading…

Prochains Passages (prochaines 24 heures)

TLE

FraisSource: CelesTrak SupGP

Époque: Sep 15, 2026, 02:01 UTC

1 62177C 24225Q   26258.08451389 -.00048382  00000+0 -40574-2 0  2585
2 62177  70.0017  46.9495 0002388 265.6299  99.7967 14.98330242    11

Suivez STARLINK-32542 en temps réel avec AllMySat

Download on the App Store